Content
SEND FEEDBACK

Daily
Averages
Monthly
Summary
United Kingdom

LONDON, ENGLAND


Home > Europe > United Kingdom > England
Elevation: 61 meters     Latitude: 51 09N     Longitude: 000 11W

WEATHER
 
SELECT A DAY
Number of Records: 296,239;   Date Range: 7/1/96 - 9/29/14
 
SHARE

PRINT THIS DATA

[ ← Previous Day ]
WEATHER ALMANAC - 1 AUGUST, 2013
[ Next Day → ]
[ °F ]   °C
Weather ElementAverageHighLow
Temperature23.7 °C32 °C (3:20 pm)15 °C (4:20 am)
Dewpoint16.8 °C19 °C (9:20 am)14 °C (4:20 am)
Humidity69 %100 % (4:50 am)38 % (3:50 pm)
Barometer1009.8 hPa1014.2 hPa (12:50 am)1006.1 hPa (5:50 pm)
Wind Speed11.3 km/h20.4 km/h (4:20 pm)
Wind Gust42.6 km/h (4:20 pm)
Weather ElementAverage
Visibility5.8 km
Wind DirectionESE (111.7 °)

Weather ElementTotal
Precipitation---
Cooling Degree Days5.2 (Base 18.3)
Growing Degree Days13.5 (Base 10)
Averaged from 47 records on 1 August, 2013
WEATHER CONDITIONS BREAKOUT
WIND DIRECTION BREAKOUT
WEATHER BY HOUR - 1 AUGUST, 2013
[ °F ]   °C
Local TimeTemperatureDewpointHumidityBarometerVisibilityWind DirectionWind SpeedGust SpeedPrecipitationEventsConditions
12:50 AM18 °C16 °C88 %1014.2 hPa10 kmVariable3.7 km/hOvercast
1:20 AM18 °C16 °C88 %1014.2 hPa10 kmVariable5.6 km/hOvercast
1:50 AM17 °C16 °C94 %1014.2 hPa10 kmVariable5.6 km/hMostly Cloudy
2:20 AM17 °C16 °C94 %1014.2 hPa6.9 kmVariable3.7 km/hScattered Clouds
2:50 AM17 °C16 °C94 %1014.2 hPa6 kmCalmMostly Cloudy
3:20 AM16 °C15 °C94 %1013.2 hPa6 kmCalmPartly Cloudy
3:50 AM16 °C15 °C94 %1013.2 hPa6.9 kmVariable5.6 km/hPartly Cloudy
4:20 AM15 °C14 °C94 %1013.2 hPa2.6 kmVariable5.6 km/hPartly Cloudy
4:50 AM15 °C15 °C100 %1013.2 hPa0.8 kmEast (80°)7.4 km/hFogFog
5:20 AM15 °C15 °C100 %1012.2 hPa0.3 kmENE (60°)7.4 km/hFogFog
5:50 AM15 °C15 °C100 %1012.2 hPa0.5 kmENE (70°)7.4 km/hFogFog
6:20 AM15 °C15 °C100 %1012.2 hPa2.6 kmEast (90°)7.4 km/hPartly Cloudy
6:50 AM15 °C15 °C100 %1012.2 hPa3.1 kmEast (80°)9.3 km/hPartly Cloudy
7:20 AM16 °C16 °C100 %1012.2 hPa6 kmENE (60°)9.3 km/hPartly Cloudy
7:50 AM17 °C16 °C94 %1012.2 hPa10 kmENE (70°)9.3 km/hPartly Cloudy
8:20 AM18 °C17 °C94 %1012.2 hPaENE (60°)11.1 km/hClear
8:50 AM20 °C18 °C88 %1011.2 hPaENE (70°)11.1 km/hClear
9:20 AM24 °C19 °C73 %1011.2 hPaEast (100°)11.1 km/hClear
9:50 AM25 °C19 °C69 %1011.2 hPaSE (130°)14.8 km/hClear
10:20 AM26 °C19 °C65 %1010.2 hPaSE (130°)13 km/hClear
10:50 AM27 °C19 °C61 %1010.2 hPaSE (130°)14.8 km/hClear
11:20 AM27 °C18 °C58 %1010.2 hPaSE (140°)16.7 km/hClear
11:50 AM27 °C19 °C61 %1009.1 hPaSE (140°)16.7 km/hClear
12:20 PM28 °C19 °C58 %1009.1 hPaSSE (150°)14.8 km/hClear
12:50 PM29 °C18 °C51 %1009.1 hPaVariable14.8 km/hClear
1:20 PM30 °C18 °C48 %1009.1 hPaSouth (170°)18.5 km/hClear
1:50 PM30 °C18 °C48 %1008.1 hPaSouth (170°)18.5 km/hClear
2:20 PM31 °C18 °C46 %1008.1 hPaSouth (170°)18.5 km/hClear
2:50 PM31 °C17 °C43 %1008.1 hPaSouth (170°)18.5 km/hClear
3:20 PM32 °C17 °C40 %1008.1 hPaSSE (160°)16.7 km/hClear
3:50 PM32 °C16 °C38 %1007.1 hPaSSE (150°)18.5 km/hClear
4:20 PM32 °C16 °C38 %1007.1 hPaSE (140°)20.4 km/h42.6 km/hClear
4:50 PM31 °C17 °C43 %1007.1 hPaSE (130°)20.4 km/hClear
5:20 PM31 °C18 °C46 %1007.1 hPaSE (140°)18.5 km/hClear
5:50 PM31 °C18 °C46 %1006.1 hPaSE (130°)18.5 km/hClear
6:20 PM30 °C18 °C48 %1006.1 hPaSE (140°)16.7 km/hClear
6:50 PM30 °C18 °C48 %1006.1 hPa10 kmSE (140°)14.8 km/hPartly Cloudy
7:20 PM29 °C18 °C51 %1006.1 hPaSSE (160°)13 km/hClear
7:50 PM29 °C18 °C51 %1006.1 hPaSouth (170°)9.3 km/hClear
8:20 PM28 °C16 °C48 %1006.1 hPaSouth (180°)9.3 km/hClear
8:50 PM26 °C16 °C54 %1006.1 hPaSouth (170°)7.4 km/hClear
9:20 PM25 °C16 °C57 %1007.1 hPaSouth (180°)5.6 km/hClear
9:50 PM24 °C16 °C61 %1007.1 hPaSouth (170°)7.4 km/hClear
10:20 PM24 °C16 °C61 %1007.1 hPaSSW (210°)7.4 km/hClear
10:50 PM23 °C17 °C69 %1008.1 hPaSSW (210°)13 km/hClear
11:20 PM22 °C17 °C73 %1008.1 hPaSW (220°)7.4 km/hClear
11:50 PM21 °C16 °C73 %1008.1 hPaSSW (210°)5.6 km/hClear
Hourly data recorded from EGKK, located 0 kilometers away from London, England







STORIES FROM OUR PARTNERS